Flag for Anguilla Weather past 2 weeks in The Valley, Anguilla

Now
81 °F

Passing clouds.


Feels Like: 85 °F
Forecast: 80 / 85 °F
Wind: 18 mph from East

Location: Juliana Airport - Saint Maarten

Current Time: Aug 2, 2014 at 2:53:29 AM

Latest Report: Aug 2, 2014 at 2:00 AM


Visibility: N/A

Pressure: 29.95 "Hg

Humidity: 79%

Dew point: 73 °F

Location of The ValleyLocation

Historic Weather in The Valley — Graph

°F

The Valley temperature yesterday

Maximum temperature yesterday: 86 °F (at 11:00 AM)
Minimum temperature yesterday: 79 °F (at 1:00 AM)
Average temperature yesterday: 83 °F

Past Weeks' High & Low Weather Summary

 TemperatureHumidityPressure
High88 °F (Jul 20, 2:00 PM)89% (Jul 18, 10:00 PM)30.12 "Hg (Jul 18, 10:00 PM)
Low77 °F (Jul 18, 8:00 AM)59% (Jul 20, 2:00 PM)29.95 "Hg (Aug 1, 3:00 PM)
Average83 °F72%30.05 "Hg
* Reported Jul 18 1:00 AM — Aug 2 1:00 AM, The Valley, Weather by CustomWeather, © 2014

Note: Actual official high and low records may vary slightly from our data, if they occured in-between our weather recording intervals... More about our weather records

Advertising

The Valley weather history for previous 24 hours

 ConditionsComfort  
Time TempWeatherWind HumidityBarometerVisibility
1:00 AM
Aug 2
82 °FPassing clouds.16 mph74%29.95 "HgN/A
12:00 AM82 °FPassing clouds.17 mph74%29.98 "HgN/A
11:00 PM
Aug 1
84 °FPassing clouds.20 mph70%30.01 "HgN/A
10:00 PM82 °FPassing clouds.21 mph70%30.01 "HgN/A
9:00 PM82 °FPassing clouds.18 mph70%30.01 "HgN/A
8:00 PM82 °FPassing clouds.17 mph66%29.98 "HgN/A
7:00 PM84 °FPassing clouds.17 mph66%29.98 "HgN/A
6:00 PM84 °FPassing clouds.13 mph70%29.95 "HgN/A
5:00 PM84 °FPassing clouds.20 mph70%29.95 "HgN/A
4:00 PM86 °FPassing clouds.17 mph62%29.95 "HgN/A
3:00 PM86 °FPassing clouds.16 mph66%29.95 "HgN/A
2:00 PM86 °FScattered clouds.13 mph66%29.98 "HgN/A
1:00 PM86 °FPassing clouds.14 mph66%29.98 "HgN/A
12:00 PM86 °FWarm.14 mph62%30.01 "HgN/A
11:00 AM86 °FPassing clouds.12 mph62%30.01 "HgN/A
10:00 AM84 °FPassing clouds.14 mph70%30.01 "HgN/A
9:00 AM84 °FPassing clouds.14 mph70%30.01 "HgN/A
8:00 AM82 °FPassing clouds.14 mph74%30.01 "HgN/A
7:00 AM82 °FScattered clouds.10 mph74%30.01 "HgN/A
6:00 AM81 °FScattered clouds.8 mph79%29.98 "HgN/A
5:00 AM81 °FPassing clouds.9 mph84%29.98 "HgN/A
4:00 AM81 °FPassing clouds.9 mph79%29.98 "HgN/A
3:00 AM81 °FPassing clouds.6 mph84%29.98 "HgN/A
2:00 AM79 °FPassing clouds.9 mph89%30.01 "HgN/A
Weather by CustomWeather, © 2014

See weather overviewHow to use our weather pages